CAPE
1001 1475 1810 1835 1803 1647 1650 1629 1476 1720 1574 1647 1781 1386 1567 1669 1562 1370 1049 1370 1424 1450 1586 1733 1055 1148 929 1058 1020 883 1180 1611 1339 878 1395 1402 1727 1540 1326 1656 1616 912 1542
1116 1480 1752 1692 1920 1668 1673 1634 1578 1691 1705 1541 1603 1512 1482 1092 1136 1296 1313 1349 1465 1353 1320 1271 938 903 617 628 1019 1254 1125 1070 1571 1659 1445 1284 1136 1728 1528 1268 1373 1422 1530
1044 1528 1448 1677 1700 1637 1536 1582 1335 1808 1414 1272 1382 1359 1585 1466 1661 1435 1235 1128 1101 1125 1211 1341 1309 983 1115 1040 825 767 839 928 1202 1247 1289 1217 1424 1588 1515 1221 1117 990 1378
838 1230 1276 1519 1622 1681 1344 1338 1181 1509 1501 1489 1298 1676 1700 1481 1361 1412 1407 1398 1322 1220 1097 993 948 962 931 874 775 546 747 759 660 1141 1255 1057 798 1093 1559 1552 1106 1191 1277
886 1145 1488 1726 1657 1490 1415 1196 976 1383 1244 996 1015 1292 1415 1103 1068 1116 978 799 681 587 484 450 604 753 776 743 719 648 610 679 831 927 878 933 739 543 925 1633 1723 1490 1311
692 872 1300 1299 1358 1345 858 1448 1454 1206 975 851 758 847 1236 1005 827 618 429 251 220 527 893 1001 978 910 968 829 683 597 607 669 890 779 942 955 976 793 1058 1474 1695 1663 992
610 919 1321 1418 1368 1273 1173 1181 1300 1032 807 618 652 705 713 614 477 284 223 460 683 675 599 857 1215 798 1038 689 1023 1056 681 942 919 797 758 666 559 611 879 1192 1254 1406 1152
585 1016 1092 1238 1259 854 1150 1345 1325 816 1353 1007 850 720 542 404 379 560 778 765 613 164 3 20 509 477 461 650 1393 1287 895 1222 1124 695 385 118 0 124 1362 1793 1442 1448 1335
459 601 730 1139 1192 1000 645 1183 1331 1131 1303 963 798 500 313 490 929 990 1115 1098 1032 419 173 356 300 212 732 1034 1385 1131 728 352 964 662 173 17 20 18 1140 1789 1591 1546 1406
422 589 597 931 1094 656 297 1268 1275 942 491 480 434 500 694 1058 546 476 306 640 890 930 404 119 435 664 574 1010 850 986 1058 1525 224 218 142 0 0 156 712 1570 1783 1614 1386
383 492 288 313 592 504 252 1085 1264 573 387 336 462 739 483 91 28 21 285 685 821 662 301 481 515 126 311 26 220 837 893 503 573 488 249 197 100 38 186 1052 1771 1953 1813
79 215 97 79 174 381 285 640 776 629 307 227 287 233 114 0 0 103 103 386 378 99 10 18 25 0 8 5 0 1 12 59 392 499 324 394 406 448 550 793 1495 1416 1418
0 55 10 7 62 59 42 77 89 138 175 170 222 224 179 37 22 58 10 0 0 0 0 0 0 0 0 0 0 1 5 17 90 390 467 452 461 666 697 1162 1325 1259 1130
0 0 0 0 0 0 11 0 0 26 88 130 209 298 348 202 102 34 35 6 0 0 0 0 0 0 0 11 88 119 80 0 13 45 185 567 718 902 1362 1262 1467 1395 653
0 0 0 0 0 0 19 65 37 31 136 229 342 354 299 196 169 142 120 80 11 10 81 55 6 1 60 214 358 343 489 445 218 46 509 628 924 1094 1417 1522 240 706 817
0 0 0 0 0 0 66 120 135 222 238 203 221 372 308 106 139 230 118 127 147 221 279 123 126 168 343 486 525 655 707 527 363 523 634 831 979 1201 1457 1809 1552 1468 1199
0 0 0 0 0 1 67 126 120 97 179 217 193 231 284 17 238 524 408 511 523 389 425 293 136 502 645 608 672 838 704 581 239 222 55 1 63 1002 1407 1148 1122 1282 1498
0 0 0 0 0 0 12 173 231 242 253 238 224 251 237 72 256 736 498 615 868 949 428 277 196 384 666 709 796 624 434 241 80 1 11 7 1 93 341 717 1017 1260 1320
25 0 0 0 0 0 82 91 216 387 342 306 217 355 495 515 651 895 854 912 1243 924 80 232 425 437 799 849 929 459 125 67 49 7 20 0 39 342 371 614 681 1013 1050
3 0 0 0 0 38 59 96 124 188 233 162 87 88 212 618 661 794 830 968 1077 696 606 665 656 502 546 797 801 399 208 134 8 66 46 88 191 125 127 248 414 951 948
0 0 0 0 0 30 2 42 55 66 104 95 38 78 676 736 701 945 824 1101 1061 1026 933 741 565 684 741 890 720 532 311 145 122 192 133 125 148 21 30 25 74 140 412
0 0 0 0 0 0 0 0 20 47 90 160 324 235 386 685 845 963 851 847 799 919 1015 930 910 1006 875 1044 977 521 505 297 167 42 88 117 79 0 1 0 0 0 0
0 0 0 0 0 0 0 0 23 99 97 102 247 283 372 499 878 742 785 579 486 684 911 1104 1352 1173 1096 1066 938 852 557 419 494 43 3 4 0 0 0 3 0 0 0
0 0 0 0 0 0 0 0 0 0 22 101 364 551 506 548 732 723 640 541 379 668 893 1390 1479 1361 1205 1384 987 804 422 358 115 91 0 0 19 6 3 0 0 0 0
0 0 0 0 0 0 0 0 0 0 15 192 395 681 747 582 569 575 788 724 734 592 999 1261 1568 1329 1243 1119 766 793 554 14 0 48 0 0 11 0 0 0 0 0 0
0 0 0 0 0 0 0 0 0 0 53 259 388 583 529 579 511 933 808 620 684 872 1381 1566 1473 1282 1050 422 17 2 16 0 0 0 0 0 0 0 0 0 0 0 0
CIN
-21 -5 -1 -0 -0 -0 -0 -0 -0 -0 -0 -0 -0 -0 -0 -0 -0 -0 -1 -0 -0 -0 -0 -0 -13 -4 -4 -4 -5 -10 -2 -0 -1 -11 -0 -0 -0 -0 -0 -0 -0 -6 -0
-29 -4 -2 -0 -0 -1 -0 -0 -0 -0 -0 -0 -0 -0 -0 -0 -0 -0 -1 -0 -0 -0 -0 -5 -19 -6 -6 -9 -5 -0 -0 -0 -0 -0 -0 -0 -0 -0 -0 -0 -0 -0 -0
-29 -0 -5 -1 -0 -0 -0 -0 -1 -0 -3 -6 -0 -2 -0 -0 -0 -0 -0 -0 -0 -0 -0 -0 -0 -3 -4 -5 -5 -6 -10 -7 -0 -0 -0 -1 -0 -0 -0 -1 -0 -8 -0
-40 -4 -12 -2 -0 -0 -2 -2 -1 -0 -0 -0 -0 -0 -0 -0 -0 -0 -0 -0 -0 -2 -13 -14 -17 -13 -15 -11 -10 -54 -31 -30 -36 -7 -2 -2 -5 -2 -0 -0 -3 -3 -0
-27 -8 -1 -0 -0 -0 -3 -2 -2 -0 -0 -0 -0 -2 -0 -4 -7 -2 -13 -33 -58 -65 -71 -78 -63 -44 -41 -39 -49 -50 -45 -37 -23 -20 -23 -21 -31 -41 -15 -0 -0 -0 -0
-42 -20 -0 -0 -0 -0 -8 -1 -0 -0 -0 -1 -13 -14 -0 -3 -30 -66 -91 -104 -102 -52 -24 -26 -38 -51 -63 -71 -77 -72 -63 -47 -23 -21 -20 -19 -13 -27 -16 -0 -0 -0 -1
-64 -19 -2 -0 -0 -0 -0 -0 -0 -0 -8 -35 -25 -20 -33 -53 -91 -124 -123 -88 -59 -48 -66 -48 -36 -69 -65 -70 -55 -38 -45 -35 -31 -40 -44 -48 -50 -38 -12 -4 -2 -0 -0
-64 -12 -2 -0 -0 -2 -0 -0 -0 -10 -0 -14 -30 -42 -65 -91 -113 -102 -78 -52 -42 -78 -41 -180 -64 -101 -97 -75 -31 -31 -18 -22 -23 -49 -77 -130 -6 -125 -33 -3 -3 -0 -0
-65 -48 -18 -1 -0 -3 -22 -0 -1 -6 -3 -43 -47 -82 -130 -109 -82 -89 -74 -45 -20 -48 -69 -72 -106 -139 -87 -57 -33 -41 -77 -97 -64 -88 -134 -228 -185 -158 -52 -7 -2 -0 -1
-62 -37 -40 -10 -7 -43 -77 -0 -0 -37 -103 -89 -83 -90 -82 -55 -114 -129 -139 -75 -46 -32 -45 -118 -95 -76 -97 -61 -78 -52 -49 -37 -154 -174 -194 -0 -0 -166 -69 -17 -0 -0 -1
-65 -46 -88 -88 -49 -66 -100 -2 -0 -83 -121 -98 -86 -54 -113 -183 -269 -273 -149 -98 -67 -66 -85 -81 -90 -161 -138 -196 -143 -88 -90 -135 -150 -169 -190 -189 -195 -214 -184 -58 -10 -3 -0
-153 -108 -137 -143 -118 -87 -87 -45 -44 -94 -145 -150 -113 -157 -201 -0 -0 -220 -199 -143 -127 -179 -85 -145 -205 -0 -217 -248 -0 -61 -290 -235 -186 -171 -201 -174 -168 -165 -134 -103 -19 -8 -6
-0 -154 -23 -24 -152 -155 -195 -188 -190 -190 -172 -156 -152 -158 -193 -246 -251 -235 -251 -0 -0 -0 -0 -0 -0 -0 -0 -0 -0 -59 -302 -228 -191 -171 -180 -189 -165 -134 -120 -89 -77 -59 -43
-0 -0 -0 -0 -0 -0 -241 -0 -0 -221 -173 -155 -145 -141 -132 -156 -151 -164 -176 -97 -0 -0 -0 -41 -6 -0 -0 -208 -268 -250 -228 -8 -198 -188 -196 -185 -166 -140 -96 -94 -68 -31 -74
-0 -0 -0 -0 -0 -0 -166 -130 -197 -187 -146 -132 -133 -129 -152 -140 -136 -136 -139 -145 -170 -87 -195 -216 -104 -13 -249 -224 -192 -187 -147 -131 -159 -228 -159 -175 -133 -127 -113 -76 -120 -31 -13
-0 -0 -0 -0 -0 -0 -95 -85 -79 -101 -113 -137 -135 -121 -139 -168 -150 -139 -147 -154 -150 -162 -144 -178 -170 -167 -123 -135 -125 -127 -135 -174 -195 -155 -129 -143 -150 -133 -99 -37 -24 -13 -9
-0 -0 -0 -0 -0 -7 -87 -90 -105 -112 -117 -124 -120 -138 -131 -202 -136 -96 -84 -72 -95 -144 -121 -126 -140 -103 -97 -126 -141 -122 -157 -181 -209 -198 -320 -32 -343 -115 -72 -60 -49 -43 -30
-0 -0 -0 -0 -0 -0 -28 -128 -106 -101 -90 -104 -100 -116 -133 -173 -110 -87 -96 -91 -87 -86 -92 -119 -153 -128 -105 -110 -101 -135 -143 -154 -193 -77 -361 -395 -24 -186 -110 -88 -41 -37 -29
-101 -0 -0 -0 -0 -0 -124 -108 -124 -68 -72 -76 -111 -76 -84 -110 -88 -74 -68 -62 -65 -77 -173 -157 -125 -138 -68 -50 -55 -73 -121 -126 -141 -159 -210 -32 -262 -103 -89 -48 -32 -25 -29
-32 -0 -0 -0 -0 -117 -146 -159 -154 -112 -86 -110 -96 -112 -113 -83 -76 -59 -62 -55 -68 -81 -78 -87 -69 -88 -83 -56 -55 -69 -83 -76 -233 -156 -218 -198 -86 -88 -118 -87 -73 -33 -34
-0 -0 -0 -0 -0 -186 -13 -179 -149 -132 -102 -90 -142 -113 -53 -49 -57 -53 -54 -38 -53 -46 -53 -68 -76 -54 -35 -52 -44 -46 -51 -82 -106 -121 -201 -160 -68 -118 -213 -230 -165 -111 -60
-0 -0 -0 -0 -0 -0 -0 -0 -164 -185 -142 -137 -77 -83 -73 -52 -46 -43 -58 -52 -58 -50 -42 -46 -47 -31 -30 -33 -23 -48 -14 -30 -104 -260 -220 -148 -120 -0 -81 -147 -0 -0 -0
-0 -0 -0 -0 -0 -0 -0 -0 -149 -243 -208 -177 -120 -97 -85 -79 -68 -55 -62 -73 -65 -57 -37 -34 -34 -28 -18 -33 -39 -20 -15 -39 -21 -295 -22 -109 -0 -0 -0 -136 -0 -0 -0
-0 -0 -0 -0 -0 -0 -0 -0 -0 -0 -220 -188 -111 -92 -91 -103 -68 -60 -73 -86 -100 -67 -37 -32 -30 -27 -34 -12 -33 -28 -72 -69 -174 -207 -0 -0 -46 -79 -50 -0 -0 -0 -0
-0 -0 -0 -0 -0 -0 -0 -0 -0 -0 -226 -189 -130 -68 -69 -100 -89 -84 -73 -92 -96 -83 -48 -39 -29 -36 -40 -36 -41 -20 -47 -341 -0 -238 -0 -0 -44 -0 -0 -0 -0 -0 -0
-0 -0 -0 -0 -0 -0 -0 -0 -0 -0 -299 -179 -145 -98 -105 -108 -127 -67 -65 -99 -90 -66 -38 -31 -36 -50 -57 -141 -244 -44 -210 -0 -0 -0 -0 -0 -0 -0 -0 -0 -0 -0 -0
Wind_Speed
24 25 27 27 26 24 22 23 25 24 22 20 17 17 16 21 24 24 24 21 21 18 16 20 22 20 20 20 18 17 18 12 12 11 10 12 12 11 12 8 8 9 8
27 26 27 26 25 25 24 21 24 24 22 18 17 18 21 23 21 22 24 23 22 21 21 20 20 18 18 19 18 18 17 16 14 11 10 11 16 15 13 8 8 9 9
27 27 27 26 25 25 24 24 24 24 18 17 20 19 19 21 23 23 22 22 22 21 18 16 15 13 13 18 18 17 17 16 15 14 11 14 15 9 11 12 8 9 9
28 27 26 26 26 25 25 24 24 24 24 24 24 24 23 23 23 22 21 19 17 17 18 16 15 14 13 13 14 15 15 15 15 15 17 16 20 21 22 20 17 7 6
28 27 27 26 26 25 25 24 24 24 23 24 24 24 24 23 22 21 16 17 17 17 16 15 15 13 13 12 12 13 14 14 13 14 13 14 15 17 18 18 14 9 6
28 27 27 26 26 25 24 24 24 24 23 23 23 23 22 20 19 19 19 17 16 15 14 14 14 14 13 12 12 12 13 13 11 10 10 11 14 14 14 13 8 10 7
28 27 26 26 25 25 24 24 24 24 24 23 23 22 21 20 19 18 17 16 15 16 12 13 15 14 13 11 10 11 12 10 9 9 10 19 17 16 15 9 8 7 9
27 27 26 25 25 25 24 24 24 23 22 23 22 21 19 17 16 15 14 13 16 16 19 17 17 15 12 12 14 16 12 9 10 10 13 16 11 6 5 8 6 5 5
26 26 25 25 25 24 24 23 24 23 23 23 22 20 17 16 15 13 11 10 16 13 6 14 14 13 11 10 8 12 11 10 11 11 11 12 12 7 6 7 5 5 4
26 25 25 25 24 24 24 24 24 23 23 23 20 16 13 18 12 10 8 8 13 8 10 11 10 10 10 9 8 9 10 10 12 11 10 11 9 6 4 7 5 4 3
25 24 24 24 24 24 24 23 24 23 23 21 21 14 16 16 13 11 9 15 13 8 7 9 9 6 8 8 10 9 9 9 10 9 8 7 7 5 3 3 4 2 4
25 25 24 24 24 23 23 24 24 23 23 19 18 18 18 13 14 12 12 13 11 8 6 8 8 7 8 8 7 7 6 6 7 7 6 6 6 3 3 9 4 2 6
25 25 25 24 24 24 23 25 25 23 22 19 18 16 16 14 13 11 10 9 9 9 7 8 7 6 6 8 10 9 9 8 6 7 7 6 5 4 2 8 7 3 5
25 25 25 25 24 24 24 25 25 23 21 17 15 15 14 12 9 9 8 8 7 8 7 7 7 6 6 7 6 6 4 4 4 5 4 4 2 2 5 6 13 11 9
26 25 25 26 26 25 25 24 24 22 20 17 15 13 13 12 10 8 7 7 7 6 6 7 7 6 5 4 2 2 3 4 3 4 4 6 5 4 6 9 13 15 20
25 26 26 26 26 25 25 24 23 22 20 18 16 14 12 12 11 10 8 6 7 7 6 6 6 5 3 3 1 4 5 7 10 11 11 14 13 10 12 15 23 27 19
26 26 26 26 25 25 24 22 22 22 21 19 16 14 13 12 11 10 9 7 7 7 6 5 5 5 4 5 8 12 11 14 15 17 21 22 23 24 23 22 24 29 32
26 26 26 25 24 24 24 23 22 22 21 18 17 15 14 13 12 10 9 8 7 8 7 5 4 4 5 4 5 19 21 18 17 23 23 24 25 24 24 24 25 28 28
25 25 25 25 24 24 24 24 22 21 19 17 16 15 14 13 12 11 9 7 9 10 8 5 6 7 2 1 10 18 19 19 23 23 25 26 26 26 25 24 26 26 25
24 24 24 25 25 24 24 24 23 21 19 17 16 14 13 14 12 11 10 9 11 9 6 3 4 6 9 9 15 17 20 20 24 26 26 26 27 27 26 25 24 25 26
21 24 25 25 25 25 23 23 23 23 21 19 16 14 14 14 12 11 12 10 10 7 6 5 8 10 13 15 18 18 16 19 24 25 26 26 26 26 26 25 25 25 25
22 24 25 25 25 24 24 23 22 22 21 19 17 15 13 13 13 12 10 9 8 7 6 7 10 11 13 17 19 19 19 19 25 27 26 26 26 25 25 25 25 25 25
20 25 26 26 24 23 23 22 22 22 20 19 17 16 15 13 13 11 9 7 6 7 6 9 11 12 15 18 19 20 20 19 19 23 26 26 25 24 23 23 24 25 24
25 24 27 26 25 24 22 21 21 22 20 19 17 16 15 14 13 10 7 6 6 6 6 10 13 15 17 19 19 20 21 20 19 19 23 24 23 22 22 22 23 24 24
21 24 26 27 26 24 22 21 20 21 21 18 17 17 15 14 13 11 7 5 9 9 10 13 17 19 19 21 20 19 19 22 23 20 20 20 21 21 20 20 20 21 23
20 19 23 25 27 26 22 22 20 20 20 19 17 17 15 15 14 12 10 9 14 13 14 18 21 23 24 23 24 23 21 21 21 21 21 19 18 18 18 18 20 20 21
Wind_Direction
146 135 121 116 123 127 137 126 95 70 55 49 39 36 36 58 79 94 126 148 149 162 166 152 132 132 124 109 115 142 153 27 35 34 327 283 288 294 278 345 344 313 332
129 130 121 120 122 119 125 136 100 73 57 40 38 43 60 73 69 76 105 119 132 136 139 138 132 130 125 102 100 96 101 86 65 43 6 312 262 267 284 348 10 7 43
129 134 127 126 127 126 121 120 110 103 42 38 57 48 50 60 76 80 88 90 105 129 160 176 180 189 173 84 73 73 78 87 96 91 327 284 273 56 91 285 46 62 71
131 136 135 136 129 124 121 117 114 112 95 94 97 85 77 76 80 73 71 57 49 53 136 160 167 160 145 124 114 103 103 111 110 122 156 276 240 225 210 195 256 43 35
136 136 133 132 130 125 114 111 111 111 107 106 112 110 101 106 111 85 24 43 72 94 109 128 149 150 157 153 152 142 135 124 119 129 131 150 152 168 168 177 152 117 75
130 135 127 127 125 118 119 115 110 104 112 112 113 116 123 128 133 122 116 116 117 127 163 177 167 142 135 145 150 144 137 139 127 121 132 147 163 165 162 153 117 134 116
124 129 128 120 120 115 117 118 117 118 122 130 129 123 127 128 129 131 126 121 108 72 91 159 176 169 178 145 140 154 151 124 135 143 151 207 188 187 184 155 138 131 146
124 125 126 119 116 118 122 121 124 135 141 135 133 127 133 142 147 149 142 121 78 55 298 207 197 195 190 213 230 216 181 140 140 130 161 182 157 79 117 156 146 147 148
124 123 123 126 122 123 130 131 129 134 138 133 135 134 146 146 149 158 171 156 98 125 189 178 196 205 225 221 212 140 118 136 140 134 141 163 166 139 112 147 149 156 165
127 128 125 127 130 128 135 136 133 140 141 135 131 158 159 99 185 184 185 171 148 167 172 172 188 213 204 204 183 178 183 178 137 124 126 148 127 100 85 169 167 175 198
134 137 136 134 135 136 140 144 140 147 142 132 131 161 136 145 154 168 165 131 142 173 204 190 172 191 188 180 161 163 157 136 139 134 123 120 140 135 99 165 188 233 275
142 143 145 141 140 144 148 146 146 151 145 145 149 141 132 145 140 155 151 137 157 178 204 235 158 193 217 201 192 187 180 155 142 142 111 104 91 143 46 355 200 260 289
148 149 151 148 148 151 155 149 154 160 151 147 145 146 136 138 136 149 163 197 206 194 189 215 213 221 209 231 249 246 243 223 180 173 135 97 65 51 50 351 341 276 299
143 148 151 151 153 157 162 157 155 158 160 164 160 157 153 150 154 147 173 216 208 208 206 199 217 220 227 241 231 229 203 174 170 178 149 95 87 31 19 360 339 330 318
143 147 148 150 150 156 164 161 159 159 160 162 176 178 161 160 159 156 155 171 193 200 219 228 226 217 231 209 182 137 123 108 120 116 102 53 31 9 357 355 343 338 329
143 149 150 149 153 158 163 167 167 171 167 168 176 177 172 166 164 164 172 183 220 222 203 184 182 174 216 213 142 81 88 81 73 64 48 28 16 0 350 345 340 329 332
151 152 150 152 154 160 167 174 176 178 179 179 175 174 176 172 172 175 184 195 185 176 162 164 171 158 119 89 73 60 63 62 59 45 29 19 11 5 358 351 343 334 317
151 153 159 158 159 160 170 173 174 166 169 180 177 173 180 172 174 171 170 180 180 161 154 155 142 135 98 69 64 50 53 60 54 31 29 23 17 12 6 3 357 344 337
153 152 157 161 159 160 162 173 185 190 188 187 176 186 184 177 178 171 169 173 142 128 128 120 102 82 62 36 65 54 56 57 39 38 29 25 23 20 23 28 26 22 9
156 155 156 159 161 155 156 170 181 198 204 202 198 200 196 180 170 163 167 153 128 131 136 131 97 73 65 62 55 58 53 55 39 36 34 30 31 31 37 43 44 39 32
152 158 159 158 161 160 158 160 169 171 191 206 212 211 213 181 161 152 142 138 129 124 111 97 76 65 61 56 53 57 61 55 42 37 37 38 38 39 46 48 40 40 35
158 160 163 165 163 165 168 168 165 160 164 178 196 202 183 168 161 148 148 141 130 118 101 79 70 63 61 54 50 54 51 53 35 33 40 43 42 43 48 52 42 38 34
160 164 166 168 165 163 162 160 160 159 157 161 183 204 199 192 177 179 177 171 141 114 92 71 63 63 55 52 52 51 48 46 46 41 38 41 45 46 51 47 45 40 39
169 165 169 169 167 163 153 153 157 161 156 152 165 193 206 176 163 182 169 160 144 118 93 67 59 57 54 47 51 51 50 49 49 48 44 42 46 48 52 50 44 39 35
165 168 170 171 171 166 159 156 155 159 157 143 150 178 215 184 189 169 165 157 118 105 80 61 51 52 50 47 52 56 55 48 44 48 44 48 48 48 53 53 49 47 40
170 167 167 170 176 177 165 164 160 157 155 154 147 159 186 207 186 220 255 121 85 84 67 52 46 44 47 50 51 51 54 51 49 49 46 51 52 53 54 54 46 46 43